Location: Caltech
(34.1382°N, 118.1253°W)
Time: 16:15:04
(UTC-08:00)

A-11 Canister half - All Passes

Search period start: 10 December 2016 00:00
Search period end: 20 December 2016 00:00
Orbit: 1514 x 1686 km, 47.2° (Epoch: 10 December)

Date Brightness Start Highest point End Pass type
(mag) Time Alt. Az. Time Alt. Az. Time Alt. Az.
10 Dec - 00:30:38 10° WNW 00:39:49 39° N 00:49:08 10° ENE visible
10 Dec - 02:36:58 10° NW 02:46:52 54° NNE 02:56:46 10° E visible
10 Dec - 04:42:15 10° WNW 04:52:17 65° SW 05:02:12 10° SE visible
10 Dec - 06:50:36 10° W 06:55:58 16° WSW 07:01:17 10° SSW daylight
10 Dec - 19:55:44 10° SSW 20:04:54 53° SE 20:14:24 10° ENE visible
10 Dec - 22:00:17 10° WSW 22:09:53 60° NNW 22:19:51 10° NE visible
11 Dec - 00:07:36 10° WNW 00:16:44 39° N 00:26:04 10° ENE night (unlit)
11 Dec - 02:14:01 10° NW 02:23:51 52° NNE 02:33:42 10° E visible
11 Dec - 04:19:17 10° WNW 04:29:22 69° SW 04:39:22 10° SE visible
11 Dec - 06:27:08 10° W 06:33:08 18° WSW 06:39:05 10° SSW daylight
11 Dec - 19:32:59 10° SSW 19:42:01 49° SE 19:51:24 10° ENE visible
11 Dec - 21:37:18 10° WSW 21:46:54 62° NNW 21:56:53 10° NE visible
11 Dec - 23:44:32 10° WNW 23:53:40 39° N 00:02:59 10° ENE night (unlit)
12 Dec - 01:51:03 10° NW 02:00:49 50° NNE 02:10:38 10° E visible
12 Dec - 03:56:19 10° WNW 04:06:27 73° SW 04:16:30 10° SE visible
12 Dec - 06:03:46 10° W 06:10:17 19° WSW 06:16:46 10° SSW visible
12 Dec - 19:10:16 10° SSW 19:19:09 46° SE 19:28:21 10° ENE visible
12 Dec - 21:14:19 10° WSW 21:23:55 65° NNW 21:33:54 10° NE visible
12 Dec - 23:21:30 10° WNW 23:30:35 39° N 23:39:56 10° ENE night (unlit)
13 Dec - 01:28:05 10° NW 01:37:46 49° NNE 01:47:33 10° E visible
13 Dec - 03:33:21 10° NW 03:43:31 77° SW 03:53:37 10° SE visible
13 Dec - 05:40:28 10° W 05:47:26 21° SW 05:54:23 10° S visible
13 Dec - 18:47:34 10° SSW 18:56:18 43° SE 19:05:19 10° ENE visible
13 Dec - 20:51:21 10° WSW 21:00:57 68° NNW 21:10:57 10° NE visible
13 Dec - 22:58:26 10° WNW 23:07:32 39° N 23:16:52 10° ENE night (unlit)
14 Dec - 01:05:07 10° NW 01:14:44 47° NNE 01:24:28 10° E visible
14 Dec - 03:10:24 10° NW 03:20:34 81° SW 03:30:44 10° SE visible
14 Dec - 05:17:13 10° WNW 05:24:35 23° SW 05:31:57 10° S visible
14 Dec - 18:24:55 10° SSW 18:33:27 40° SE 18:42:16 10° ENE visible
14 Dec - 20:28:24 10° WSW 20:37:59 71° NNW 20:47:59 10° NE visible
14 Dec - 22:35:23 10° WNW 22:44:28 40° N 22:53:49 10° ENE visible
15 Dec - 00:42:08 10° NW 00:51:42 46° NNE 01:01:22 10° E visible
15 Dec - 02:47:26 10° NW 02:57:38 85° SW 03:07:49 10° SE visible
15 Dec - 04:54:01 10° WNW 05:01:44 25° SW 05:09:27 10° S visible
15 Dec - 18:02:15 10° SSW 18:10:36 37° SE 18:19:12 10° ENE visible
15 Dec - 20:05:27 10° WSW 20:15:01 74° NNW 20:25:01 10° NE visible
15 Dec - 22:12:20 10° WNW 22:21:25 40° N 22:30:46 10° ENE visible
16 Dec - 00:19:10 10° NW 00:28:39 45° NNE 00:38:16 10° E night (unlit)
16 Dec - 02:24:30 10° NW 02:34:41 89° SW 02:44:53 10° SE visible
16 Dec - 04:30:50 10° WNW 04:38:52 28° SW 04:46:54 10° S visible
16 Dec - 17:39:38 10° S 17:47:45 34° SE 17:56:08 10° ENE visible
16 Dec - 19:42:31 10° WSW 19:52:05 78° NW 20:02:03 10° NE visible
16 Dec - 21:49:17 10° W 21:58:21 41° N 22:07:43 10° ENE visible
16 Dec - 23:56:12 10° NW 00:05:36 43° NNE 00:15:10 10° E night (unlit)
17 Dec - 02:01:34 10° NW 02:11:43 87° NE 02:21:57 10° SE visible
17 Dec - 04:07:42 10° WNW 04:16:02 30° SW 04:24:20 10° S visible
17 Dec - 17:17:01 10° S 17:24:55 31° SE 17:33:01 10° ENE visible
17 Dec - 19:19:36 10° WSW 19:29:08 82° NW 19:39:05 10° NE visible
17 Dec - 21:26:15 10° W 21:35:19 42° NNW 21:44:41 10° ENE visible
17 Dec - 23:33:13 10° NW 23:42:33 42° NNE 23:52:03 10° E night (unlit)
18 Dec - 01:38:37 10° NW 01:48:46 83° NE 01:58:59 10° SE visible
18 Dec - 03:44:36 10° WNW 03:53:09 32° SW 04:01:43 10° S visible
18 Dec - 16:54:28 10° S 17:02:06 29° SE 17:09:54 10° ENE daylight
18 Dec - 18:56:42 10° SW 19:06:12 86° NW 19:16:08 10° NE visible
18 Dec - 21:03:12 10° W 21:12:16 43° NNW 21:21:40 10° NE visible
18 Dec - 23:10:15 10° WNW 23:19:30 42° NNE 23:28:57 10° E night (unlit)
19 Dec - 01:15:41 10° NW 01:25:48 79° NE 01:36:01 10° ESE visible
19 Dec - 03:21:30 10° WNW 03:30:17 35° SW 03:39:04 10° S visible
19 Dec - 16:31:56 10° S 16:39:16 26° SE 16:46:46 10° ENE daylight
19 Dec - 18:33:49 10° SW 18:43:17 90° NW 18:53:10 10° NE visible
19 Dec - 20:40:10 10° W 20:49:14 43° NNW 20:58:38 10° NE visible
19 Dec - 22:47:16 10° WNW 22:56:26 41° N 23:05:50 10° ENE visible
